Content
SEND FEEDBACK

Daily
Averages
Monthly
Summary
United States of America

SANTAQUIN, UTAH


Home > North America > United States > Utah
Elevation: 5165 feet     Latitude: 39 57N     Longitude: 111 48W

WEATHER
 
SELECT A DAY
Number of Records: 395,950;   Date Range: 1/1/95 - 4/19/14
 
SHARE

PRINT THIS DATA

[ ← Previous Day ]
WEATHER ALMANAC - JANUARY 23, 2013
[ Next Day → ]
[ °C ]   °F
Weather ElementAverageHighLow
Temperature9 °F19.4 °F (4:52 pm) (9:51 am)
Dewpoint6.4 °F15.8 °F (5:52 pm)-2.2 °F (12:55 am)
Humidity89.2 %100 % (12:35 am)78 % (12:55 am)
Barometer30.32 in30.37 in (1:55 am)30.26 in (8:47 pm)
Wind Speed0.5 mph3.5 mph (1:35 am)
Weather ElementAverage
Visibility2 mi
Wind DirectionNNE (29 °)

Weather ElementTotal
Precipitation---
Heating Degree Days55.3 (Base 65)
Averaged from 40 records on January 23, 2013
WEATHER CONDITIONS BREAKOUT
WIND DIRECTION BREAKOUT
WEATHER BY HOUR - JANUARY 23, 2013
[ °C ]   °F
Local TimeTemperatureDewpointHumidityBarometerVisibilityWind DirectionWind SpeedGust SpeedPrecipitationEventsConditions
12:35 AM3.2 °F3.2 °F100 %30.35 in1.5 miCalmClear
12:55 AM3.2 °F-2.2 °F78 %30.35 in1.8 miCalmClear
1:15 AM3.2 °F3.2 °F100 %30.36 in1.8 miCalmClear
1:35 AM3.2 °F-0.4 °F85 %30.35 in1.8 miEast (100°)3.5 mphClear
1:55 AM3.2 °F-0.4 °F85 %30.37 in1.8 miCalmClear
2:15 AM3.2 °F-2.2 °F78 %30.37 in1.8 miCalmClear
2:35 AM3.2 °F1.4 °F92 %30.35 in1.8 miCalmClear
2:55 AM5.0 °F1.4 °F85 %30.34 in1.5 miCalmClear
3:15 AM3.2 °F1.4 °F92 %30.33 in2.0 miCalmClear
3:35 AM3.2 °F3.2 °F100 %30.33 in2.0 miCalmClear
3:55 AM3.2 °F-0.4 °F85 %30.34 in2.0 miWSW (240°)3.5 mphClear
4:15 AM3.2 °F1.4 °F92 %30.35 in2.5 miCalmClear
4:35 AM3.2 °F1.4 °F92 %30.34 in2.5 miCalmClear
4:55 AM1.4 °F-0.4 °F92 %30.35 in2.5 miCalmClear
5:15 AM3.2 °F3.2 °F100 %30.34 in2.5 miCalmClear
5:35 AM3.2 °F1.4 °F92 %30.35 in2.5 miCalmClear
5:55 AM3.2 °F3.2 °F100 %30.34 in2.0 miCalmClear
6:15 AM3.2 °F1.4 °F92 %30.35 in2.0 miCalmClear
6:35 AM3.2 °F3.2 °F100 %30.35 in2.0 miEast (90°)3.5 mphClear
6:47 AM3.2 °F1.4 °F92 %30.35 in1.5 miCalmHaze
8:48 AM6.8 °F5.0 °F92 %30.34 in1.5 miCalmHaze
9:51 AM0.0 °F0.0 °F30.35 in1.5 miCalmHaze
10:54 AM10.4 °F8.6 °F92 %30.36 in1.5 miWest (270°)3.5 mphHaze
11:49 AM14.0 °F10.4 °F86 %30.35 in1.5 miWSW (240°)3.5 mphHaze
1:50 PM15.8 °F12.2 °F86 %30.32 in2.0 miCalmHaze
3:50 PM17.6 °F12.2 °F79 %30.29 in1.5 miCalmHaze
4:52 PM19.4 °F14.0 °F80 %30.28 in2.0 miCalmHaze
5:52 PM17.6 °F15.8 °F93 %30.28 in2.0 miCalmHaze
6:47 PM17.6 °F12.2 °F79 %30.27 in2.0 miCalmHaze
7:59 PM15.8 °F12.2 °F86 %30.27 in2.0 miCalmHaze
8:47 PM14.0 °F10.4 °F86 %30.26 in2.0 miCalmHaze
9:15 PM15.8 °F12.2 °F86 %30.27 in2.5 miCalmClear
9:35 PM17.6 °F14.0 °F86 %30.28 in2.0 miCalmScattered Clouds
9:55 PM17.6 °F15.8 °F93 %30.27 in2.0 miCalmScattered Clouds
10:15 PM15.8 °F12.2 °F86 %30.26 in2.5 miCalmClear
10:35 PM15.8 °F12.2 °F86 %30.27 in2.0 miCalmClear
10:55 PM15.8 °F12.2 °F86 %30.27 in1.8 miSW (220°)3.5 mphClear
11:15 PM15.8 °F12.2 °F86 %30.28 in2.0 miCalmScattered Clouds
11:35 PM15.8 °F12.2 °F86 %30.29 in2.0 miCalmScattered Clouds
11:55 PM15.8 °F14.0 °F93 %30.28 in2.0 miCalmClear
Hourly data recorded from KPVU, located 18.96 miles away from Santaquin, Utah







STORIES FROM OUR PARTNERS